Location: Berlise
(49.6641°N, 4.1077°E)
Time: 02:36:30
(UTC+00:00)

Cosmos 1092 Rocket - Pass Details

Date: 27 January 2021
Orbit: 954 x 995 km, 83.0° (Epoch: 24 February)

Event Time Altitude Azimuth Distance (km) Brightness Sun altitude
Rises 04:28:40 0° 352° (N) 3,646 7.0 -28.0°
Reaches altitude 10° 04:31:13 10° 357° (N) 2,697 6.3 -27.6°
Maximum altitude 04:37:18 58° 76° (ENE) 1,113 4.5 -26.6°
Drops below altitude 10° 04:43:22 10° 155° (SSE) 2,698 6.6 -25.6°
Sets 04:45:55 0° 159° (SSE) 3,647 7.2 -25.2°
